Regional Weather Roundup
Issued by NWS

Home | Current Version | Previous Version | Graphics & Text | Print | Product List | Glossary On
Versions: 1 2 3 4 5 6 7 8 9 10 11 12 13 14 15 16 17 18 19 20 21 22 23 24 25 26 27 28 29 30 31 32 33 34 35 36 37 38 39 40 41 42 43 44 45 46 47 48 49 50
000
ASUS43 KDTX 271201
RWRMI
MICHIGAN HOURLY REGIONAL WEATHER ROUNDUP
NATIONAL WEATHER SERVICE DETROIT/PONTIAC MI
800 AM EDT SAT AUG 27 2016

NOTE: "FAIR" INDICATES FEW OR NO CLOUDS BELOW 12,000 FEET WITH NO
SIGNIFICANT WEATHER AND/OR OBSTRUCTION TO VISIBILITY.

MIZ047>049-052>055-059>063-066>070-074>076-081>083-271300-
SOUTHEAST LOWER MICHIGAN

CITY           SKY/WX    TMP DP  RH WIND       PRES   REMARKS
ADRIAN         MOSUNNY   69  64  84 SE6       30.15R
6HR MIN TEMP:  67; 6HR MAX TEMP:  69;

ALMA           CLOUDY    63  63  98 W6        30.16R
ANN ARBOR      PTSUNNY   69  66  90 NE3       30.14S
BAD AXE        CLOUDY    64  64 100 CALM      30.17S
6HR MIN TEMP:  58; 6HR MAX TEMP:  64;

CARO           DRIZZLE   63  63  98 CALM      30.15S
DETROIT CITY   CLOUDY    73  70  90 SE6       30.16S
6HR MIN TEMP:  71; 6HR MAX TEMP:  73;

DETROIT        CLOUDY    72  69  90 E5        30.15S
6HR MIN TEMP:  70; 6HR MAX TEMP:  73; 6HR PCP: TRACE;

FLINT          CLOUDY    70  63  78 E5        30.15F
6HR MIN TEMP:  63; 6HR MAX TEMP:  70;

GROSSE ILE     CLOUDY    73  67  84 CALM      30.14F
6HR MIN TEMP:  69; 6HR MAX TEMP:  74;

HILLSDALE      CLOUDY    69  61  76 SE6       30.15R
6HR MIN TEMP:  51; 6HR MAX TEMP:  84;

HOWELL         CLOUDY    69  64  84 SE6       30.15S
6HR MIN TEMP:  64; 6HR MAX TEMP:  69;


CITY           SKY/WX    TMP DP  RH WIND       PRES   REMARKS
JACKSON        CLOUDY    69  66  90 E5        30.15R
6HR MIN TEMP:  66; 6HR MAX TEMP:  69;

LAMBERTVILLE   CLOUDY    70  62  76 CALM      30.15R
6HR MIN TEMP:  66; 6HR MAX TEMP:  70;

LANSING        MOSUNNY   67  61  81 E5        30.14S
6HR MIN TEMP:  62; 6HR MAX TEMP:  67;

LAPEER         PTSUNNY   65  64  96 CALM      30.18R
6HR MIN TEMP:  59; 6HR MAX TEMP:  65;

MASON          MOSUNNY   67  63  85 S6        30.14S
MONROE         MOSUNNY   68  67  96 CALM      30.14R
MT. CLEMENS    PTSUNNY   71  68  91 E7        30.15S
6HR MIN TEMP:  66; 6HR MAX TEMP:  71;

PONTIAC        PTSUNNY   71  66  84 E7        30.16R
6HR MIN TEMP:  65; 6HR MAX TEMP:  71;

PORT HURON     CLOUDY    68  66  94 SE5       30.18R
TRI CITIES     CLOUDY    65  63  93 CALM      30.16R
6HR MIN TEMP:  62; 6HR MAX TEMP:  65; 6HR PCP: TRACE;

MIDLAND        LGT RAIN  63  63 100 CALM      30.16R
6HR MIN TEMP:  57; 6HR MAX TEMP:  63;

TROY           CLOUDY    72  66  82 NE3       30.18S
SAGINAW HB     LGT RAIN  64  63  94 CALM      30.15R
$$
MIZ043>046-050>051-056>058-064>065-071>073-077>080-271300-
SOUTHWEST LOWER MICHIGAN

CITY           SKY/WX    TMP DP  RH WIND       PRES   REMARKS
BATTLE CREEK   CLOUDY    67  63  87 E6        30.13R
6HR MIN TEMP:  65; 6HR MAX TEMP:  67; 6HR PCP: TRACE;

BENTON HARBOR  RAIN      67  64  90 W6        30.11R FOG
6HR MIN TEMP:  67; 6HR MAX TEMP:  69; 6HR PCP:  0.08;

BIG RAPIDS     HVY RAIN  62  61  96 E5        30.15S
6HR MIN TEMP:  58; 6HR MAX TEMP:  62; 6HR PCP:  0.13;

COLDWATER      MOCLDY    69  62  79 E5        30.13R
6HR MIN TEMP:  67; 6HR MAX TEMP:  69;

FREMONT        LGT RAIN  63  60  91 E7        30.13R
6HR MIN TEMP:  61; 6HR MAX TEMP:  64;

HOLLAND        LGT RAIN  64  61  90 E5        30.12R
6HR MIN TEMP:  63; 6HR MAX TEMP:  65; 6HR PCP:  0.04;

GRAND RAPIDS   LGT RAIN  65  59  81 E7        30.13R
6HR MIN TEMP:  62; 6HR MAX TEMP:  65; 6HR PCP: TRACE;

IONIA          CLOUDY    63  60  91 E5        30.13S
6HR MIN TEMP:  60; 6HR MAX TEMP:  63;

KALAMAZOO      CLOUDY    69  62  78 CALM      30.12R
6HR MIN TEMP:  68; 6HR MAX TEMP:  69; 6HR PCP: TRACE;

LUDINGTON      RAIN      59  59  99 E3        30.14S
6HR MIN TEMP:  58; 6HR MAX TEMP:  60; 6HR PCP:  0.05;

MARSHALL       CLOUDY    68  66  94 E3        30.12S
MOUNT PLEASANT LGT RAIN  62  61  97 CALM      30.16S
6HR MIN TEMP:  58; 6HR MAX TEMP:  62; 6HR PCP:  0.01;

MUSKEGON       LGT RAIN  65  60  84 E6        30.12R
6HR MIN TEMP:  63; 6HR MAX TEMP:  65; 6HR PCP: TRACE;

SOUTH HAVEN    HVY RAIN  66  64  94 CALM      30.11R
$$
MIZ016>042-271300-
NORTHERN LOWER MICHIGAN

CITY           SKY/WX    TMP DP  RH WIND       PRES   REMARKS
ALPENA         PTSUNNY   62  58  86 CALM      30.18F
6HR MIN TEMP:  56; 6HR MAX TEMP:  62;

BEAVER ISLAND  CLOUDY    63  63  99 E3        30.18S
6HR MIN TEMP:  62; 6HR MAX TEMP:  64;

BELLAIRE       CLOUDY    60  59  95 CALM      30.19R
6HR MIN TEMP:  55; 6HR MAX TEMP:  60;

CADILLAC       LGT RAIN  61  59  94 CALM      30.18R
CHARLEVOIX     CLOUDY    62  60  91 SE3       30.22R
6HR MIN TEMP:  61; 6HR MAX TEMP:  62;

FRANKFORT      LGT RAIN  61  58  92 CALM      30.16F
GAYLORD        CLOUDY    63  57  81 CALM      30.20R
6HR MIN TEMP:  55; 6HR MAX TEMP:  63; 6HR PCP: TRACE;

GRAYLING       CLOUDY    58  56  93 CALM      30.19R
6HR MIN TEMP:  53; 6HR MAX TEMP:  59;

HARBOR SPRINGS CLOUDY    62  59  90 NE3       30.20R
HOUGHTON LAKE  CLOUDY    60  58  92 CALM      30.18R
6HR MIN TEMP:  54; 6HR MAX TEMP:  60;

MANISTEE       LGT RAIN  59  58  96 CALM      30.16S
OSCODA         CLOUDY    69  62  77 E8        30.16S
6HR MIN TEMP:  60; 6HR MAX TEMP:  69;

PELLSTON       CLOUDY    58  56  93 CALM      30.20R
6HR MIN TEMP:  52; 6HR MAX TEMP:  59; 6HR PCP: TRACE;

ROGERS CITY    PTSUNNY   61  58  92 CALM      30.19S
TRAVERSE CITY  CLOUDY    63  59  87 CALM      30.17R
6HR MIN TEMP:  60; 6HR MAX TEMP:  63; 6HR PCP: TRACE;

$$
MIZ007>008-015-271300-
EASTERN UPPER MICHIGAN

CITY           SKY/WX    TMP DP  RH WIND       PRES   REMARKS
KINROSS        LGT RAIN  58  55  90 E3        30.20S
6HR MIN TEMP:  55; 6HR MAX TEMP:  60; 6HR PCP: TRACE;

MACKINAC ISLAN LGT RAIN  60  60 100 E6        30.19R
6HR MIN TEMP:  58; 6HR MAX TEMP:  61; 6HR PCP:  0.01;

NEWBERRY       CLOUDY    56  55  97 CALM      30.19R
6HR MIN TEMP:  55; 6HR MAX TEMP:  57;

S. S. MARIE    CLOUDY    57  54  89 NE3       30.19S
6HR MIN TEMP:  56; 6HR MAX TEMP:  59;

$$
MIZ004>006-011>014-085-271300-
CENTRAL UPPER MICHIGAN

CITY           SKY/WX    TMP DP  RH WIND       PRES   REMARKS
MANISTIQUE     DRIZZLE   61  58  92 E5        30.17S
6HR MIN TEMP:  58; 6HR MAX TEMP:  61; 6HR PCP:  0.01;

ESCANABA       LGT RAIN  65  62  90 S6        30.15R
6HR MIN TEMP:  61; 6HR MAX TEMP:  65; 6HR PCP:  0.02;

MENOMINEE        N/A    N/A N/A N/A MISG        N/A
                                      6HR PCP:  0.21;

SAWYER-GWINN   PTCLDY    54  52  94 CALM      30.17S
$$
MIZ001>003-009>011-084-271300-
WESTERN UPPER MICHIGAN

CITY           SKY/WX    TMP DP  RH WIND       PRES   REMARKS
IRON MOUNTAIN  LGT RAIN  58  55  90 CALM      30.15S
6HR MIN TEMP:  56; 6HR MAX TEMP:  58; 6HR PCP: TRACE;

HOUGHTON       PTCLDY    52  50  93 CALM      30.14S
6HR MIN TEMP:  49; 6HR MAX TEMP:  52;

IRONWOOD       CLOUDY    53  52  96 E5        30.14S
6HR MIN TEMP:  51; 6HR MAX TEMP:  54;

$$

ABBREVIATIONS USED IN REMARKS
   TC - TEMPERATURE IN CELSIUS
  WCI - WIND CHILL INDEX
   HX - HEAT INDEX
  VSB - VISIBILITY





USA.gov is the U.S. government's official web portal to all federal, state and local government web resources and services.